SCP
-0 -0 0 -0 -0 0 -0 0 0 -0 -0 -0 -0 0 -0 0 -0 0 -0 -0 0 0 0 0 0 0 0 0 0 0 -0 -0 -0 -0 -0 -0 -0 -0 -0 -0 -0 -0 -0 -0 -0 -0 -0 -0 0
-0 -0 0 -0 -0 0 0 0 0 -0 0 -0 -0 -0 -0 -0 -0 0 0 0 0 0 -0 0 0 0 0 0 0 0 -0 -0 0 0 0 -0 0 -0 -0 -0 -0 -0 -0 -0 -0 -0 -0 0 -0
-0 -0 0 0 0 -0 -0 0 0 0 0 -0 -0 0 -0 -0 0 -0 0 0 0 0 -0 0 0 0 -0 0 0 0 -0 0 0 0 0 0 0 0 0 0 0 0 0 -0 -0 -0 -0 -0 -0
-0 0 0 0 -0 0 -0 0 0 0 0 0 -0 -0 -0 -0 -0 -0 0 0 0 0 -0 0 0 -0 0 0 0 0 0 0 0 0 0 0 0 0 0 0 -0 0 0 0 0 0 0 0 0
-0 -0 -0 0 -0 0 -0 0 -0 0 0 -0 0 0 0 0 -0 -0 0 0 0 0 -0 0 0 0 0 0 0 0 0 0 -0 -0 0 0 0 0 -0 0 -0 -0 0 0 0 0 -0 0 0
0 0 0 -0 0 0 0 -0 -0 -0 0 0 -0 -0 0 0 -0 -0 0 0 0 0 -0 0 0 0 0 0 -0 0 0 -0 0 0 0 -0 0 0 -0 0 -0 0 0 0 -0 -0 -0 0 0
0 0 -0 0 0 -0 -0 -0 -0 -0 -0 0 -0 -0 0 0 -0 -0 0 0 0 0 -0 -0 -0 -0 0 -0 -0 -0 -0 -0 0 0 0 0 0 0 0 0 0 0 0 0 0 0 0 0 0
-0 -0 -0 0 0 0 0 -0 0 -0 0 0 -0 -0 -0 -0 -0 -0 0 0 0 0 -0 -0 -0 -0 -0 -0 0 0 0 0 0 0 -0 0 0 0 0 0 0 0 0 0 0 0 0 0 0
0 0 -0 -0 -0 -0 0 -0 -0 0 0 0 0 -0 -0 -0 -0 -0 -0 0 0 0 -0 -0 -0 -0 -0 0 0 0 0 0 0 0 -0 -0 0 0 0 0 0 0 0 0 0 0 0 0 0
-0 -0 0 -0 -0 0 0 0 -0 0 -0 0 -0 -0 -0 -0 -0 -0 -0 -0 0 0 -0 -0 -0 -0 -0 0 0 0 0 0 0 0 0 0 0 0 0 0 0 0 0 0 0 0 0 0 0
-0 0 0 -0 0 0 0 -0 -0 -0 0 0 -0 -0 -0 -0 -0 -0 -0 -0 0 0 -0 -0 -0 -0 0 0 0 0 0 0 0 0 0 0 0 0 0 0 0 0 0 0 0 0 0 0 0
-0 0 0 0 0 0 0 0 -0 -0 0 -0 -0 -0 -0 -0 -0 -0 -0 0 0 0 0 -0 -0 -0 -0 0 0 -0 -0 -0 -0 0 0 0 0 0 -0 -0 0 0 0 0 0 0 0 0 0
0 0 0 -0 -0 -0 0 -0 0 0 0 -0 -0 -0 -0 -0 -0 -0 -0 0 0 0 0 -0 -0 -0 -0 -0 -0 -0 -0 -0 -0 0 -0 -0 0 0 0 0 0 0 0 0 0 0 0 0 0
0 0 -0 0 0 0 0 0 0 0 -0 -0 -0 -0 -0 -0 -0 -0 -0 -0 0 0 0 -0 -0 -0 -0 -0 -0 -0 -0 -0 0 0 0 0 0 0 0 0 0 0 0 0 0 0 0 0 0
0 0 0 0 0 0 0 0 -0 0 -0 -0 -0 -0 -0 -0 -0 -0 -0 -0 -0 0 0 -0 -0 -0 -0 -0 -0 -0 -0 -0 0 0 0 0 0 0 0 0 -0 0 0 -0 0 0 0 0 -0
0 0 -0 0 0 -0 0 -0 0 -0 -0 -0 -0 -0 -0 -0 -0 -0 0 -0 -0 0 0 -0 -0 -0 -0 -0 -0 -0 -0 0 0 -0 -0 0 0 0 0 0 0 0 0 0 0 -0 0 0 0
0 0 0 0 0 0 0 -0 0 -0 -0 -0 -0 -0 -0 -0 -0 -0 -0 -0 0 0 -0 -0 -0 -0 -0 -0 -0 -0 -0 -0 0 -0 -0 0 0 0 0 0 0 0 0 0 0 0 0 0 -0
0 0 0 0 0 0 0 0 -0 -0 -0 -0 -0 -0 -0 -0 -0 -0 -0 -0 -0 0 0 -0 -0 -0 -0 -0 -0 -0 -0 -0 -0 -0 -0 0 -0 0 0 0 0 0 0 0 -0 0 0 -0 0
0 0 0 0 0 0 0 0 -0 -0 0 -0 -0 -0 -0 -0 0 -0 -0 0 -0 0 0 -0 -0 -0 -0 -0 -0 -0 0 -0 0 -0 -0 0 0 0 0 0 0 0 0 0 0 0 0 0 -0
0 0 0 0 0 0 0 0 0 0 -0 -0 -0 -0 -0 -0 -0 -0 -0 -0 0 0 0 0 -0 -0 -0 -0 -0 -0 0 0 0 0 0 0 -0 0 0 0 0 0 0 0 0 0 0 0 0
0 0 0 0 0 0 0 0 0 0 0 0 0 0 0 -0 -0 0 -0 -0 0 0 0 0 0 0 0 0 0 0 0 0 0 0 0 0 0 0 0 0 0 0 0 0 0 0 0 0 0
0 0 0 0 -0 0 0 0 0 0 0 0 0 -0 -0 -0 -0 0 -0 -0 -0 0 0 0 0 0 0 0 0 0 0 0 -0 0 0 0 0 -0 0 0 0 0 0 0 0 0 0 0 0
0 0 0 0 -0 0 0 0 0 0 0 0 -0 -0 -0 -0 -0 -0 -0 -0 -0 0 0 0 0 0 0 0 0 0 0 -0 0 0 -0 -0 -0 -0 -0 -0 0 0 0 0 0 0 0 -0 0
0 0 0 0 0 -0 -0 0 0 0 -0 0 0 -0 -0 -0 -0 -0 -0 -0 -0 -0 0 0 0 0 0 0 0 0 0 0 0 -0 -0 -0 -0 0 -0 -0 -0 0 0 0 0 -0 0 0 -0
0 0 0 0 0 0 0 0 0 -0 0 -0 -0 -0 -0 -0 -0 -0 -0 -0 -0 -0 0 0 0 0 0 0 0 0 0 0 0 0 -0 -0 -0 -0 -0 -0 -0 -0 -0 0 0 -0 -0 -0 -0
0 0 0 0 0 0 0 0 0 -0 -0 0 0 -0 -0 -0 -0 -0 -0 -0 -0 -0 0 0 0 0 0 0 0 0 0 0 0 0 0 -0 0 0 -0 -0 -0 -0 -0 0 0 -0 -0 -0 0
0 0 0 0 0 0 0 0 0 0 0 0 0 0 0 0 -0 -0 -0 -0 -0 -0 -0 0 0 0 0 0 0 0 0 0 0 0 0 -0 -0 0 0 -0 -0 -0 0 -0 0 -0 -0 -0 -0
0 0 0 0 0 0 0 0 -0 0 0 0 0 0 0 0 0 0 -0 -0 -0 -0 0 0 0 0 0 0 0 0 0 0 0 0 0 0 -0 -0 0 0 0 0 0 0 0 -0 -0 -0 -0
0 0 0 0 0 0 0 -0 -0 0 0 0 0 -0 -0 0 -0 0 -0 -0 -0 -0 0 0 0 0 0 0 0 0 0 0 0 0 0 0 0 -0 -0 0 0 0 0 0 0 0 0 -0 -0
0 0 0 0 0 0 0 -0 0 0 0 0 0 -0 0 0 -0 -0 -0 -0 -0 -0 0 0 0 0 0 0 0 0 0 0 0 0 0 0 0 0 0 0 0 0 0 0 0 0 0 0 0
Wind_Speed_500mb
24 28 27 12 5 4 5 6 3 13 8 24 63 13 14 10 3 5 55 65 62 64 57 49 51 49 46 43 44 41 40 41 41 39 40 37 38 36 34 34 33 31 30 29 28 28 29 28 31
29 32 17 5 4 4 5 3 12 18 9 24 39 26 10 6 9 34 73 66 65 66 57 52 51 48 44 42 43 40 38 41 40 37 37 37 37 35 33 33 32 30 27 26 26 28 32 33 34
27 18 2 3 4 4 4 6 12 6 2 26 14 24 11 10 25 79 72 71 71 66 57 54 51 47 43 41 39 38 35 39 39 36 36 35 35 36 35 34 32 29 26 27 26 26 30 31 34
22 8 4 4 6 8 7 13 28 23 13 13 31 17 12 7 67 63 79 72 71 64 56 53 50 46 42 39 36 35 37 39 36 34 37 38 40 41 40 38 36 33 30 29 28 27 31 30 27
14 5 4 3 6 7 2 22 23 15 20 23 11 10 18 41 43 82 76 73 70 64 56 53 48 44 40 37 34 34 36 36 35 34 38 43 43 43 42 38 35 34 31 28 27 26 32 31 30
5 2 2 1 6 11 7 8 10 11 14 19 24 26 13 25 63 81 76 70 65 62 57 51 46 42 38 35 33 33 33 33 35 38 39 40 41 40 37 34 35 34 31 27 27 27 30 29 28
7 4 6 3 9 5 10 17 17 10 17 12 43 11 24 43 81 74 73 68 62 57 54 51 46 41 37 33 33 33 32 33 34 36 39 39 38 37 33 34 36 36 31 27 26 25 28 28 25
8 3 6 5 5 9 3 8 10 16 5 33 28 14 25 74 85 75 69 63 58 54 52 50 46 42 37 33 33 34 32 32 33 34 36 38 37 34 30 31 33 34 32 29 25 24 25 26 23
8 3 6 10 11 4 11 8 11 3 21 9 12 36 72 100 84 76 70 61 55 50 50 47 45 41 36 32 32 33 32 30 30 31 33 33 33 31 31 30 29 28 24 22 21 23 23 22 22
7 3 10 12 16 1 4 19 29 14 30 10 29 53 96 98 87 80 74 69 60 55 51 46 43 40 36 32 34 32 31 30 30 30 29 31 31 29 27 28 26 22 19 21 18 14 18 19 16
14 9 5 5 22 2 12 30 30 31 6 17 68 94 107 97 86 79 73 69 64 58 52 49 44 39 35 33 35 31 29 27 25 24 26 23 25 26 25 23 24 20 18 21 16 19 15 17 19
6 22 27 6 22 13 15 24 14 35 13 43 74 121 117 101 90 81 73 67 64 60 53 49 45 41 37 36 34 32 34 31 28 26 27 18 20 23 23 24 19 17 17 15 14 21 22 16 18
24 21 24 48 51 39 20 31 13 39 10 51 78 90 101 97 86 78 72 64 62 59 55 51 47 43 41 39 37 35 31 29 28 24 20 19 16 16 17 16 17 18 14 13 15 14 14 15 12
16 38 45 47 40 22 19 12 26 20 53 71 76 83 85 91 90 77 75 72 66 57 57 53 50 44 43 43 39 36 31 26 21 21 20 18 17 16 19 17 15 14 16 13 12 11 12 21 20
37 17 19 32 30 4 27 6 9 52 61 72 70 69 73 74 81 83 81 76 70 58 55 57 52 47 47 47 43 35 27 24 20 23 23 21 13 12 12 18 18 19 18 17 17 18 25 27 25
9 9 6 18 14 17 21 7 26 57 65 63 66 68 74 75 78 78 80 73 68 60 57 57 56 52 54 50 45 36 26 22 26 26 21 19 9 7 14 16 17 17 18 22 23 26 23 20 14
6 8 13 16 22 8 16 9 31 59 61 59 65 70 70 70 78 83 82 72 68 66 61 61 62 58 61 51 47 37 27 26 27 27 25 18 3 8 12 11 14 15 15 18 14 20 21 20 10
11 9 8 12 7 22 22 13 36 57 61 64 63 69 73 76 90 90 91 75 71 67 62 63 65 60 59 56 50 40 34 29 27 27 27 21 6 6 8 9 14 15 12 12 12 13 8 16 15
8 8 11 12 12 17 29 18 41 60 50 52 61 64 72 75 83 93 93 88 77 72 72 68 70 67 63 61 59 54 48 42 33 28 26 25 16 6 9 10 16 16 12 11 14 13 13 16 16
16 11 11 19 11 11 13 33 35 41 63 79 79 75 76 71 74 91 97 94 92 81 80 79 75 73 71 68 62 59 54 52 43 34 27 28 24 16 12 13 17 17 20 15 15 17 23 19 17
26 26 18 19 10 7 9 14 28 39 20 41 55 68 71 84 86 91 99 101 96 96 89 92 80 82 80 75 69 65 61 57 57 49 41 31 30 26 20 15 22 20 21 18 12 20 22 20 21
23 24 28 29 6 8 10 8 21 32 43 41 60 71 77 80 79 89 94 107 108 106 96 94 93 84 88 85 76 69 65 69 65 64 52 40 33 31 27 21 21 26 24 19 15 18 22 20 27
29 12 19 16 7 5 18 7 14 29 37 44 55 75 82 88 90 94 104 104 102 105 105 103 96 93 87 95 83 71 66 70 73 69 60 53 43 37 33 27 20 27 28 23 18 18 26 24 31
9 8 7 1 6 20 35 15 10 26 50 43 53 77 84 85 93 96 109 101 98 101 110 109 106 101 91 97 92 78 68 61 67 66 66 60 55 49 39 31 26 28 31 26 23 20 29 24 30
22 15 9 8 11 25 15 15 26 44 51 55 56 89 89 86 84 86 101 99 107 108 107 112 112 109 100 98 98 87 75 63 59 62 62 61 54 50 45 37 33 31 32 28 26 27 24 33 28
25 29 11 16 8 17 12 15 12 29 47 80 79 95 81 83 91 92 87 104 109 112 115 113 114 112 108 104 101 93 83 70 62 61 64 61 59 52 40 39 35 32 32 30 31 31 28 28 30
16 38 24 10 7 4 8 10 12 15 26 38 60 70 68 70 80 83 89 97 105 111 117 117 118 113 112 109 105 100 90 78 69 66 63 65 59 51 46 41 39 36 34 34 33 33 34 32 33
31 17 15 8 19 11 9 10 13 24 24 28 38 59 73 81 85 92 84 93 106 113 111 114 114 111 110 113 109 105 94 81 70 70 69 67 62 59 52 48 43 42 39 37 38 37 37 38 35
17 23 8 11 9 25 3 16 16 19 29 37 39 71 76 85 95 107 101 101 108 104 111 114 116 112 113 110 107 104 98 87 77 73 72 68 66 64 59 56 50 46 43 39 42 40 39 42 41
19 21 15 21 26 2 5 31 10 23 25 30 45 73 81 90 100 103 107 104 107 98 99 113 115 116 114 108 104 103 96 89 84 73 69 69 69 65 65 57 54 50 49 49 49 49 48 46 45
Wind_Direction_500mb
150 153 151 152 222 227 249 241 238 145 200 201 161 181 153 52 131 179 148 155 155 149 147 144 138 134 131 128 121 120 120 120 119 120 123 121 123 128 131 129 127 123 113 108 100 101 106 114 113
152 151 164 177 211 225 245 243 241 167 158 127 145 115 68 90 118 144 148 156 155 151 149 144 140 136 133 127 121 118 115 117 116 117 120 122 124 125 123 126 122 117 114 109 104 99 112 116 120
156 163 184 152 257 225 307 289 278 221 150 153 123 89 94 114 140 145 150 155 155 152 150 144 142 139 134 127 124 122 121 120 120 116 116 118 116 117 116 117 117 115 110 106 108 113 121 115 117
163 199 218 224 278 268 150 253 235 223 180 144 117 72 77 176 147 153 151 156 153 151 150 146 145 142 136 130 127 126 124 124 117 117 116 115 114 112 111 109 110 109 109 103 103 119 125 126 124
176 227 225 214 268 265 23 324 331 168 156 134 113 91 101 131 156 152 153 155 154 153 152 149 146 144 138 132 131 130 127 128 124 120 115 116 115 111 107 108 108 103 101 97 98 118 130 122 116
142 255 238 104 294 302 4 351 310 227 134 121 105 109 129 159 158 153 155 156 156 155 154 150 148 146 141 135 133 133 129 129 125 123 121 117 113 110 110 109 103 100 101 98 97 113 128 125 114
173 188 188 190 287 348 136 150 216 211 162 127 136 98 132 153 158 154 155 156 157 158 156 153 154 151 147 139 135 134 132 131 130 128 128 124 117 112 112 108 102 97 96 95 89 104 128 132 123
209 128 194 209 342 309 83 149 196 149 171 142 161 156 161 160 158 157 155 157 157 162 160 158 159 155 151 144 140 139 138 135 135 135 136 131 126 121 114 110 107 98 94 90 90 92 125 134 127
191 217 211 163 166 21 100 165 206 168 154 179 174 159 159 157 157 158 158 161 164 165 167 164 163 157 154 149 143 144 141 137 137 138 137 138 132 128 122 115 115 110 102 92 91 98 105 127 130
186 202 228 179 146 26 184 166 165 162 176 74 110 145 153 157 160 161 166 168 172 173 174 171 168 162 159 152 147 147 143 141 137 136 139 142 140 136 130 125 119 117 111 104 99 104 109 125 124
193 225 206 210 141 32 237 173 180 155 211 192 148 153 157 161 164 166 170 173 175 177 176 176 173 168 162 153 150 151 148 150 155 159 144 143 146 144 141 131 122 117 114 121 109 104 123 147 142
239 250 252 160 213 228 255 172 157 164 213 195 169 160 161 165 168 172 174 177 177 181 180 179 178 173 166 159 155 148 137 136 141 136 139 138 148 147 149 140 127 119 118 114 114 126 108 118 155
238 261 265 253 255 252 255 181 179 202 171 165 156 160 164 168 172 178 180 179 179 184 184 185 182 179 172 165 161 158 148 141 136 131 140 156 160 159 148 137 140 135 141 123 122 136 126 116 140
203 230 255 265 256 244 180 159 137 155 152 151 160 166 170 173 176 178 185 183 186 184 187 189 188 184 179 170 164 161 155 149 141 138 128 153 149 159 137 131 126 131 145 132 144 149 147 131 127
262 293 294 274 224 239 139 143 159 155 157 156 165 170 175 178 180 186 191 188 187 187 187 194 193 187 183 174 174 174 171 172 163 141 143 157 160 171 152 138 103 128 127 134 120 127 138 132 127
181 165 254 275 220 189 167 228 136 156 157 166 172 175 178 183 185 190 196 195 193 189 190 196 196 190 181 179 179 184 191 207 185 174 163 169 173 177 174 149 144 133 143 137 141 140 140 140 115
297 191 203 285 225 182 178 117 165 167 165 174 181 180 183 190 190 193 197 200 195 195 194 199 198 195 189 188 186 193 200 198 185 181 185 181 184 187 176 152 147 155 144 154 142 146 151 147 166
190 183 206 228 244 192 201 177 168 180 177 181 187 187 189 194 197 194 195 202 204 202 202 199 198 196 194 192 193 199 203 204 197 190 197 194 189 194 184 209 179 165 159 170 154 163 201 166 154
179 186 194 237 228 187 219 172 183 183 190 191 190 196 195 199 203 200 199 201 208 209 208 203 202 200 198 199 199 203 207 210 212 199 196 205 201 185 214 225 188 188 184 185 187 182 182 179 174
246 251 247 288 216 181 232 217 195 181 196 194 190 196 200 200 203 205 203 203 207 212 214 212 211 213 207 207 207 209 209 216 218 216 209 205 217 213 234 238 219 202 208 225 213 213 195 186 191
219 219 229 235 47 221 114 246 197 202 198 204 203 205 205 200 202 203 205 207 205 210 215 217 215 219 216 214 215 215 215 218 219 218 217 208 213 223 232 247 232 229 220 222 223 207 201 205 202
214 206 223 252 115 222 161 239 207 206 204 198 204 204 210 208 210 209 205 205 206 214 214 217 221 225 222 218 219 220 221 219 220 222 224 222 219 223 228 242 234 227 218 221 218 215 210 212 195
227 163 202 233 196 279 250 133 265 209 210 208 207 209 211 208 210 210 209 206 208 211 214 217 221 225 224 221 221 221 225 225 225 224 225 227 226 228 231 234 239 235 232 222 220 228 208 202 197
161 194 185 74 151 248 248 166 244 190 217 212 211 215 214 207 208 214 216 210 208 211 215 217 220 223 224 222 221 222 225 229 227 228 226 225 227 230 230 231 239 239 237 233 226 221 211 208 214
198 129 231 237 201 237 223 196 216 202 215 210 210 213 218 210 207 207 216 211 212 210 215 217 218 221 223 223 222 224 227 231 233 226 219 216 217 221 226 226 230 236 237 233 226 225 224 216 221
205 203 168 188 178 221 182 209 236 199 215 217 219 217 213 204 208 208 210 217 215 213 215 218 219 220 223 223 223 226 229 232 234 231 224 220 222 224 224 224 228 235 237 234 229 227 230 227 230
200 209 199 95 4 154 223 240 290 194 224 218 218 217 212 213 212 211 210 214 212 215 216 221 222 222 223 224 225 226 229 232 234 233 229 225 224 226 225 227 231 234 237 238 234 233 229 236 236
206 168 192 206 206 235 279 224 224 175 200 211 220 221 216 211 211 215 214 213 213 220 220 222 223 223 224 225 225 226 229 232 235 234 231 227 227 226 228 229 231 236 239 241 235 235 230 235 240
207 202 203 157 178 222 270 250 201 205 189 191 207 223 215 207 208 213 213 211 212 218 220 223 223 224 224 225 225 227 230 231 234 235 232 230 229 229 231 230 232 237 234 231 233 235 236 237 239
289 197 165 204 215 272 190 251 253 214 201 177 203 216 222 211 211 209 208 205 207 210 217 222 223 223 223 226 226 229 231 233 233 236 236 233 231 229 229 230 229 230 229 232 234 239 242 242 244
Wind_Speed_850mb
24 28 27 12 5 4 5 6 3 13 8 24 63 13 14 10 3 5 55 65 62 64 57 49 51 49 46 43 44 41 40 41 41 39 40 37 38 36 34 34 33 31 30 29 28 28 29 28 31
29 32 17 5 4 4 5 3 12 18 9 24 39 26 10 6 9 34 73 66 65 66 57 52 51 48 44 42 43 40 38 41 40 37 37 37 37 35 33 33 32 30 27 26 26 28 32 33 34
27 18 2 3 4 4 4 6 12 6 2 26 14 24 11 10 25 79 72 71 71 66 57 54 51 47 43 41 39 38 35 39 39 36 36 35 35 36 35 34 32 29 26 27 26 26 30 31 34
22 8 4 4 6 8 7 13 28 23 13 13 31 17 12 7 67 63 79 72 71 64 56 53 50 46 42 39 36 35 37 39 36 34 37 38 40 41 40 38 36 33 30 29 28 27 31 30 27
14 5 4 3 6 7 2 22 23 15 20 23 11 10 18 41 43 82 76 73 70 64 56 53 48 44 40 37 34 34 36 36 35 34 38 43 43 43 42 38 35 34 31 28 27 26 32 31 30
5 2 2 1 6 11 7 8 10 11 14 19 24 26 13 25 63 81 76 70 65 62 57 51 46 42 38 35 33 33 33 33 35 38 39 40 41 40 37 34 35 34 31 27 27 27 30 29 28
7 4 6 3 9 5 10 17 17 10 17 12 43 11 24 43 81 74 73 68 62 57 54 51 46 41 37 33 33 33 32 33 34 36 39 39 38 37 33 34 36 36 31 27 26 25 28 28 25
8 3 6 5 5 9 3 8 10 16 5 33 28 14 25 74 85 75 69 63 58 54 52 50 46 42 37 33 33 34 32 32 33 34 36 38 37 34 30 31 33 34 32 29 25 24 25 26 23
8 3 6 10 11 4 11 8 11 3 21 9 12 36 72 100 84 76 70 61 55 50 50 47 45 41 36 32 32 33 32 30 30 31 33 33 33 31 31 30 29 28 24 22 21 23 23 22 22
7 3 10 12 16 1 4 19 29 14 30 10 29 53 96 98 87 80 74 69 60 55 51 46 43 40 36 32 34 32 31 30 30 30 29 31 31 29 27 28 26 22 19 21 18 14 18 19 16
14 9 5 5 22 2 12 30 30 31 6 17 68 94 107 97 86 79 73 69 64 58 52 49 44 39 35 33 35 31 29 27 25 24 26 23 25 26 25 23 24 20 18 21 16 19 15 17 19
6 22 27 6 22 13 15 24 14 35 13 43 74 121 117 101 90 81 73 67 64 60 53 49 45 41 37 36 34 32 34 31 28 26 27 18 20 23 23 24 19 17 17 15 14 21 22 16 18
24 21 24 48 51 39 20 31 13 39 10 51 78 90 101 97 86 78 72 64 62 59 55 51 47 43 41 39 37 35 31 29 28 24 20 19 16 16 17 16 17 18 14 13 15 14 14 15 12
16 38 45 47 40 22 19 12 26 20 53 71 76 83 85 91 90 77 75 72 66 57 57 53 50 44 43 43 39 36 31 26 21 21 20 18 17 16 19 17 15 14 16 13 12 11 12 21 20
37 17 19 32 30 4 27 6 9 52 61 72 70 69 73 74 81 83 81 76 70 58 55 57 52 47 47 47 43 35 27 24 20 23 23 21 13 12 12 18 18 19 18 17 17 18 25 27 25
9 9 6 18 14 17 21 7 26 57 65 63 66 68 74 75 78 78 80 73 68 60 57 57 56 52 54 50 45 36 26 22 26 26 21 19 9 7 14 16 17 17 18 22 23 26 23 20 14
6 8 13 16 22 8 16 9 31 59 61 59 65 70 70 70 78 83 82 72 68 66 61 61 62 58 61 51 47 37 27 26 27 27 25 18 3 8 12 11 14 15 15 18 14 20 21 20 10
11 9 8 12 7 22 22 13 36 57 61 64 63 69 73 76 90 90 91 75 71 67 62 63 65 60 59 56 50 40 34 29 27 27 27 21 6 6 8 9 14 15 12 12 12 13 8 16 15
8 8 11 12 12 17 29 18 41 60 50 52 61 64 72 75 83 93 93 88 77 72 72 68 70 67 63 61 59 54 48 42 33 28 26 25 16 6 9 10 16 16 12 11 14 13 13 16 16
16 11 11 19 11 11 13 33 35 41 63 79 79 75 76 71 74 91 97 94 92 81 80 79 75 73 71 68 62 59 54 52 43 34 27 28 24 16 12 13 17 17 20 15 15 17 23 19 17
26 26 18 19 10 7 9 14 28 39 20 41 55 68 71 84 86 91 99 101 96 96 89 92 80 82 80 75 69 65 61 57 57 49 41 31 30 26 20 15 22 20 21 18 12 20 22 20 21
23 24 28 29 6 8 10 8 21 32 43 41 60 71 77 80 79 89 94 107 108 106 96 94 93 84 88 85 76 69 65 69 65 64 52 40 33 31 27 21 21 26 24 19 15 18 22 20 27
29 12 19 16 7 5 18 7 14 29 37 44 55 75 82 88 90 94 104 104 102 105 105 103 96 93 87 95 83 71 66 70 73 69 60 53 43 37 33 27 20 27 28 23 18 18 26 24 31
9 8 7 1 6 20 35 15 10 26 50 43 53 77 84 85 93 96 109 101 98 101 110 109 106 101 91 97 92 78 68 61 67 66 66 60 55 49 39 31 26 28 31 26 23 20 29 24 30
22 15 9 8 11 25 15 15 26 44 51 55 56 89 89 86 84 86 101 99 107 108 107 112 112 109 100 98 98 87 75 63 59 62 62 61 54 50 45 37 33 31 32 28 26 27 24 33 28
25 29 11 16 8 17 12 15 12 29 47 80 79 95 81 83 91 92 87 104 109 112 115 113 114 112 108 104 101 93 83 70 62 61 64 61 59 52 40 39 35 32 32 30 31 31 28 28 30
16 38 24 10 7 4 8 10 12 15 26 38 60 70 68 70 80 83 89 97 105 111 117 117 118 113 112 109 105 100 90 78 69 66 63 65 59 51 46 41 39 36 34 34 33 33 34 32 33
31 17 15 8 19 11 9 10 13 24 24 28 38 59 73 81 85 92 84 93 106 113 111 114 114 111 110 113 109 105 94 81 70 70 69 67 62 59 52 48 43 42 39 37 38 37 37 38 35
17 23 8 11 9 25 3 16 16 19 29 37 39 71 76 85 95 107 101 101 108 104 111 114 116 112 113 110 107 104 98 87 77 73 72 68 66 64 59 56 50 46 43 39 42 40 39 42 41
19 21 15 21 26 2 5 31 10 23 25 30 45 73 81 90 100 103 107 104 107 98 99 113 115 116 114 108 104 103 96 89 84 73 69 69 69 65 65 57 54 50 49 49 49 49 48 46 45
Wind_Direction_850mb
150 153 151 152 222 227 249 241 238 145 200 201 161 181 153 52 131 179 148 155 155 149 147 144 138 134 131 128 121 120 120 120 119 120 123 121 123 128 131 129 127 123 113 108 100 101 106 114 113
152 151 164 177 211 225 245 243 241 167 158 127 145 115 68 90 118 144 148 156 155 151 149 144 140 136 133 127 121 118 115 117 116 117 120 122 124 125 123 126 122 117 114 109 104 99 112 116 120
156 163 184 152 257 225 307 289 278 221 150 153 123 89 94 114 140 145 150 155 155 152 150 144 142 139 134 127 124 122 121 120 120 116 116 118 116 117 116 117 117 115 110 106 108 113 121 115 117
163 199 218 224 278 268 150 253 235 223 180 144 117 72 77 176 147 153 151 156 153 151 150 146 145 142 136 130 127 126 124 124 117 117 116 115 114 112 111 109 110 109 109 103 103 119 125 126 124
176 227 225 214 268 265 23 324 331 168 156 134 113 91 101 131 156 152 153 155 154 153 152 149 146 144 138 132 131 130 127 128 124 120 115 116 115 111 107 108 108 103 101 97 98 118 130 122 116
142 255 238 104 294 302 4 351 310 227 134 121 105 109 129 159 158 153 155 156 156 155 154 150 148 146 141 135 133 133 129 129 125 123 121 117 113 110 110 109 103 100 101 98 97 113 128 125 114
173 188 188 190 287 348 136 150 216 211 162 127 136 98 132 153 158 154 155 156 157 158 156 153 154 151 147 139 135 134 132 131 130 128 128 124 117 112 112 108 102 97 96 95 89 104 128 132 123
209 128 194 209 342 309 83 149 196 149 171 142 161 156 161 160 158 157 155 157 157 162 160 158 159 155 151 144 140 139 138 135 135 135 136 131 126 121 114 110 107 98 94 90 90 92 125 134 127
191 217 211 163 166 21 100 165 206 168 154 179 174 159 159 157 157 158 158 161 164 165 167 164 163 157 154 149 143 144 141 137 137 138 137 138 132 128 122 115 115 110 102 92 91 98 105 127 130
186 202 228 179 146 26 184 166 165 162 176 74 110 145 153 157 160 161 166 168 172 173 174 171 168 162 159 152 147 147 143 141 137 136 139 142 140 136 130 125 119 117 111 104 99 104 109 125 124
193 225 206 210 141 32 237 173 180 155 211 192 148 153 157 161 164 166 170 173 175 177 176 176 173 168 162 153 150 151 148 150 155 159 144 143 146 144 141 131 122 117 114 121 109 104 123 147 142
239 250 252 160 213 228 255 172 157 164 213 195 169 160 161 165 168 172 174 177 177 181 180 179 178 173 166 159 155 148 137 136 141 136 139 138 148 147 149 140 127 119 118 114 114 126 108 118 155
238 261 265 253 255 252 255 181 179 202 171 165 156 160 164 168 172 178 180 179 179 184 184 185 182 179 172 165 161 158 148 141 136 131 140 156 160 159 148 137 140 135 141 123 122 136 126 116 140
203 230 255 265 256 244 180 159 137 155 152 151 160 166 170 173 176 178 185 183 186 184 187 189 188 184 179 170 164 161 155 149 141 138 128 153 149 159 137 131 126 131 145 132 144 149 147 131 127
262 293 294 274 224 239 139 143 159 155 157 156 165 170 175 178 180 186 191 188 187 187 187 194 193 187 183 174 174 174 171 172 163 141 143 157 160 171 152 138 103 128 127 134 120 127 138 132 127
181 165 254 275 220 189 167 228 136 156 157 166 172 175 178 183 185 190 196 195 193 189 190 196 196 190 181 179 179 184 191 207 185 174 163 169 173 177 174 149 144 133 143 137 141 140 140 140 115
297 191 203 285 225 182 178 117 165 167 165 174 181 180 183 190 190 193 197 200 195 195 194 199 198 195 189 188 186 193 200 198 185 181 185 181 184 187 176 152 147 155 144 154 142 146 151 147 166
190 183 206 228 244 192 201 177 168 180 177 181 187 187 189 194 197 194 195 202 204 202 202 199 198 196 194 192 193 199 203 204 197 190 197 194 189 194 184 209 179 165 159 170 154 163 201 166 154
179 186 194 237 228 187 219 172 183 183 190 191 190 196 195 199 203 200 199 201 208 209 208 203 202 200 198 199 199 203 207 210 212 199 196 205 201 185 214 225 188 188 184 185 187 182 182 179 174
246 251 247 288 216 181 232 217 195 181 196 194 190 196 200 200 203 205 203 203 207 212 214 212 211 213 207 207 207 209 209 216 218 216 209 205 217 213 234 238 219 202 208 225 213 213 195 186 191
219 219 229 235 47 221 114 246 197 202 198 204 203 205 205 200 202 203 205 207 205 210 215 217 215 219 216 214 215 215 215 218 219 218 217 208 213 223 232 247 232 229 220 222 223 207 201 205 202
214 206 223 252 115 222 161 239 207 206 204 198 204 204 210 208 210 209 205 205 206 214 214 217 221 225 222 218 219 220 221 219 220 222 224 222 219 223 228 242 234 227 218 221 218 215 210 212 195
227 163 202 233 196 279 250 133 265 209 210 208 207 209 211 208 210 210 209 206 208 211 214 217 221 225 224 221 221 221 225 225 225 224 225 227 226 228 231 234 239 235 232 222 220 228 208 202 197
161 194 185 74 151 248 248 166 244 190 217 212 211 215 214 207 208 214 216 210 208 211 215 217 220 223 224 222 221 222 225 229 227 228 226 225 227 230 230 231 239 239 237 233 226 221 211 208 214
198 129 231 237 201 237 223 196 216 202 215 210 210 213 218 210 207 207 216 211 212 210 215 217 218 221 223 223 222 224 227 231 233 226 219 216 217 221 226 226 230 236 237 233 226 225 224 216 221
205 203 168 188 178 221 182 209 236 199 215 217 219 217 213 204 208 208 210 217 215 213 215 218 219 220 223 223 223 226 229 232 234 231 224 220 222 224 224 224 228 235 237 234 229 227 230 227 230
200 209 199 95 4 154 223 240 290 194 224 218 218 217 212 213 212 211 210 214 212 215 216 221 222 222 223 224 225 226 229 232 234 233 229 225 224 226 225 227 231 234 237 238 234 233 229 236 236
206 168 192 206 206 235 279 224 224 175 200 211 220 221 216 211 211 215 214 213 213 220 220 222 223 223 224 225 225 226 229 232 235 234 231 227 227 226 228 229 231 236 239 241 235 235 230 235 240
207 202 203 157 178 222 270 250 201 205 189 191 207 223 215 207 208 213 213 211 212 218 220 223 223 224 224 225 225 227 230 231 234 235 232 230 229 229 231 230 232 237 234 231 233 235 236 237 239
289 197 165 204 215 272 190 251 253 214 201 177 203 216 222 211 211 209 208 205 207 210 217 222 223 223 223 226 226 229 231 233 233 236 236 233 231 229 229 230 229 230 229 232 234 239 242 242 244